Back to catalog

STARLINK-37157

AliveCommunicationsSSO
NORAD 68394·PAYLOAD·🇺🇸 United States

Launched Mar 26, 2026 from Vandenberg Space Force Base

Loading…

Next Passes (next 24 hours)

TLE

FreshSource: CelesTrak SupGP

Epoch: Sep 14, 2026, 21:36 UTC

1 68394C 26063Q   26257.90048611  .00013827  00000+0  42909-3 0  2572
2 68394  97.2859  38.9188 0000892  98.5631 332.4778 15.33442697    19

Track STARLINK-37157 in real time with AllMySat

Download on the App Store